This is the latest recevied weather packets stored in our database for station/object K8JCL-13. If no packets are shown the sender has not sent any weather packets the latest 10 day(s).
| Time | Temp. | Humidity | Pressure | Rain* | Wind** | Luminosity | Snow |
|---|---|---|---|---|---|---|---|
| 1777988578 | 16.11° C | 95% | 1008.4 hPa | 0 mm | - | 259 W/m² | - |
| 1777988274 | 15.56° C | 97% | 1008.3 hPa | 0 mm | - | 245 W/m² | - |
| 1777987971 | 15° C | 97% | 1008.2 hPa | 0 mm | - | 137 W/m² | - |
| 1777987667 | 15° C | 97% | 1008.1 hPa | 0 mm | - | 111 W/m² | - |
| 1777987364 | 15° C | 98% | 1007.7 hPa | 0 mm | - | 142 W/m² | - |
| 1777987061 | 15° C | 99% | 1007.9 hPa | 0 mm | - | 214 W/m² | - |
| 1777986758 | 14.44° C | 99% | 1007.8 hPa | 0 mm | - | 141 W/m² | - |
| 1777986456 | 14.44° C | 99% | 1008.2 hPa | 0 mm | - | 154 W/m² | - |
| 1777986154 | 13.89° C | 99% | 1007.9 hPa | 0 mm | - | 124 W/m² | - |
| 1777985851 | 13.89° C | 99% | 1008 hPa | 0 mm | - | 84 W/m² | - |
| 1777985548 | 13.89° C | 99% | 1008.5 hPa | 0 mm | - | 88 W/m² | - |
| 1777985245 | 13.89° C | 99% | 1008.2 hPa | 0 mm | - | 79 W/m² | - |
| 1777984942 | 13.89° C | 99% | 1008.3 hPa | 0 mm | - | 57 W/m² | - |
| 1777984637 | 13.89° C | 99% | 1008.5 hPa | 0 mm | - | 41 W/m² | - |
| 1777984334 | 13.89° C | 99% | 1008.4 hPa | 0 mm | - | 48 W/m² | - |
| 1777984031 | 13.33° C | 99% | 1008.4 hPa | 0 mm | - | 46 W/m² | - |
| 1777983728 | 13.33° C | 99% | 1008.5 hPa | 0 mm | - | 45 W/m² | - |
| 1777983424 | 13.33° C | 99% | 1008.4 hPa | 0 mm | - | 51 W/m² | - |
| 1777983121 | 13.33° C | 99% | 1008.3 hPa | 0 mm | - | 39 W/m² | - |
| 1777982818 | 13.33° C | 99% | 1008.5 hPa | 0 mm | - | 39 W/m² | - |
| 1777982514 | 13.33° C | 99% | 1008.4 hPa | 0 mm | - | 39 W/m² | - |
| 1777982207 | 13.33° C | 99% | 1008.3 hPa | 0 mm | - | 32 W/m² | - |
| 1777981906 | 12.78° C | 99% | 1008.3 hPa | 0 mm | - | 36 W/m² | - |
| 1777981602 | 13.33° C | 99% | 1008.2 hPa | 0 mm | - | 41 W/m² | - |
| 1777981299 | 12.78° C | 99% | 1008.2 hPa | 0 mm | - | 46 W/m² | - |
* Rain latest hour (hover to see other rain measurements)
** Current wind speed in m/s (hover to see current wind gust speed)